Flag for China Weather past 2 weeks in Langfang, Hebei, China

Now
46 °F

Clear.


Feels Like: 46 °F
Forecast: 43 / 64 °F
Wind: 1 mph from North

Location: Beijing Airport

Current Time: Oct 22, 2014 at 5:07:15 AM

Latest Report: Oct 22, 2014 at 4:30 AM


Visibility: 10 mi

Pressure: 30.24 "Hg

Humidity: 71%

Dew point: 37 °F

Location of LangfangLocation

Historic Weather in Langfang — Graph

°F

Langfang temperature yesterday

Maximum temperature yesterday: 59 °F (at 2:00 PM)
Minimum temperature yesterday: 43 °F (at 11:00 PM)
Average temperature yesterday: 53 °F

Past Weeks' High & Low Weather Summary

 TemperatureHumidityPressure
High75 °F (Oct 17, 3:00 PM)100% (Oct 8, 4:30 AM)30.51 "Hg (Oct 8, 4:30 AM)
Low36 °F (Oct 16, 6:30 AM)10% (Oct 15, 4:00 PM)29.92 "Hg (Oct 15, 3:00 AM)
Average57 °F66%30.13 "Hg
* Reported Oct 7 3:00 AM — Oct 22 3:30 AM, Langfang, Weather by CustomWeather, © 2014

Note: Actual official high and low records may vary slightly from our data, if they occured in-between our weather recording intervals... More about our weather records

Advertising

Langfang weather history for previous 24 hours

 ConditionsComfort  
Time TempWeatherWind HumidityBarometerVisibility
3:30 AM
Oct 22
45 °FClear.1 mph76%30.24 "Hg10 mi
3:00 AM45 °FClear.1 mph81%30.24 "Hg10 mi
2:30 AM43 °FClear.1 mph81%30.24 "Hg10 mi
2:00 AM43 °FClear.1 mph81%30.24 "Hg10 mi
1:30 AM43 °FClear.1 mph81%30.24 "Hg10 mi
1:00 AM45 °FClear.1 mph76%30.24 "Hg10 mi
12:30 AM43 °FClear.1 mph81%30.24 "Hg10 mi
12:00 AM43 °FClear.1 mph81%30.27 "Hg10 mi
11:30 PM
Oct 21
43 °FClear.1 mph81%30.24 "Hg10 mi
11:00 PM43 °FClear.1 mph81%30.27 "Hg10 mi
10:30 PM45 °FClear.1 mph71%30.27 "Hg10 mi
10:00 PM46 °FClear.3 mph66%30.27 "Hg10 mi
9:30 PM46 °FClear.3 mph66%30.27 "Hg10 mi
9:00 PM45 °FClear.3 mph76%30.24 "Hg10 mi
8:30 PM46 °FClear.3 mph66%30.24 "Hg10 mi
8:00 PM46 °FClear.1 mph66%30.24 "Hg10 mi
7:30 PM46 °FClear.1 mph66%30.24 "Hg10 mi
7:00 PM48 °FClear.1 mph66%30.24 "Hg10 mi
6:30 PM48 °FClear.1 mph62%30.24 "Hg10 mi
6:00 PM50 °FClear.1 mph50%30.21 "Hg10 mi
5:30 PM52 °FClear.1 mph47%30.21 "Hg10 mi
5:00 PM55 °FSunny.3 mph33%30.21 "Hg10 mi
4:30 PM57 °FSunny.6 mph31%30.21 "Hg10 mi
4:00 PM59 °FPassing clouds.6 mph29%30.21 "HgN/A
3:30 PM59 °FPassing clouds.6 mph27%30.21 "HgN/A
3:00 PM59 °FPassing clouds.8 mph27%30.21 "HgN/A
2:30 PM59 °FPassing clouds.6 mph27%30.24 "HgN/A
2:00 PM59 °FSunny.3 mph29%30.24 "Hg10 mi
1:30 PM57 °FPassing clouds.6 mph31%30.24 "HgN/A
1:00 PM57 °FPassing clouds.3 mph31%30.27 "HgN/A
12:30 PM57 °FPassing clouds.6 mph27%30.27 "HgN/A
12:00 PM57 °FPassing clouds.6 mph29%30.30 "HgN/A
11:30 AM55 °FPassing clouds.6 mph31%30.30 "HgN/A
11:00 AM55 °FPassing clouds.6 mph33%30.30 "HgN/A
10:30 AM55 °FSunny.6 mph33%30.30 "Hg10 mi
10:00 AM55 °FPassing clouds.6 mph36%30.30 "HgN/A
9:30 AM55 °FPassing clouds.3 mph36%30.30 "HgN/A
9:00 AM55 °FPassing clouds.6 mph33%30.30 "HgN/A
8:30 AM55 °FSunny.3 mph36%30.30 "Hg10 mi
8:00 AM55 °FPassing clouds.6 mph36%30.30 "HgN/A
7:30 AM55 °FPassing clouds.6 mph38%30.27 "HgN/A
7:00 AM54 °FSunny.6 mph44%30.27 "Hg10 mi
6:30 AM54 °FSunny.6 mph41%30.27 "Hg10 mi
6:00 AM54 °FClear.3 mph47%30.24 "Hg10 mi
5:30 AM54 °FClear.3 mph47%30.24 "Hg10 mi
5:00 AM54 °FClear.1 mph51%30.24 "Hg10 mi
Weather by CustomWeather, © 2014

See weather overviewHow to use our weather pages